Data for 07/22/2018

Time Sea-Level Adjusted Pressure Absolute Pressure Temperature Relative Humidity Dew Point   
(mb) (inHg) (mb) (inHg) (C) (F) (%) (C) (F)
00:05 1021 30.15 851 25.13 18.8 65.9 41 5.5 41.8
00:10 1022 30.18 851 25.13 18.8 65.9 39 4.6 40.3
00:15 1022 30.18 851 25.13 18.9 66.1 34 2.7 36.8
00:20 1022 30.18 851 25.13 19.1 66.4 32 2.1 35.8
00:25 1022 30.18 851 25.13 19.2 66.6 31 1.8 35.3
00:30 1022 30.18 851 25.13 19.3 66.8 32 2.4 36.3
00:35 1022 30.18 851 25.13 19.1 66.4 32 2 35.6
00:40 1022 30.18 851 25.13 19 66.2 31 1.5 34.7
00:45 1022 30.18 851 25.13 19 66.1 31 1.7 35.1
00:50 1022 30.18 851 25.13 18.9 66.1 31 1.5 34.8
00:55 1022 30.18 851 25.13 18.8 65.9 30 1.1 33.9
01:00 1022 30.18 851 25.13 18.6 65.6 28 -0.1 31.8
01:05 1022 30.18 851 25.13 18.6 65.5 27 -0.4 31.2
01:10 1022 30.18 852 25.16 18.5 65.3 27 -0.6 30.9
01:15 1022 30.18 852 25.16 18.4 65.1 24 -2.2 28.1
01:20 1022 30.18 852 25.16 18.4 65 26 -1.3 29.7
01:25 1023 30.21 852 25.16 18.3 64.9 26 -1.5 29.3
01:30 1023 30.21 852 25.16 18.3 65 27 -1.1 30
01:35 1023 30.21 852 25.16 18.4 65.1 24 -2.4 27.8
01:40 1023 30.21 852 25.16 18.5 65.4 25 -1.5 29.3
01:45 1023 30.21 852 25.16 18.6 65.4 24 -2 28.4
01:50 1023 30.21 852 25.16 18.5 65.3 26 -1 30.1
01:55 1023 30.21 852 25.16 18.1 64.7 25 -1.8 28.7
02:00 1023 30.21 852 25.16 18 64.4 27 -1 30.2
02:05 1023 30.21 852 25.16 17.8 64 28 -1.1 30.1
02:10 1023 30.21 852 25.16 17.5 63.4 28 -1 30.2
02:15 1023 30.21 853 25.19 17.3 63.1 28 -1.1 30
02:20 1023 30.21 853 25.19 17.1 62.7 28 -1.5 29.4
02:25 1024 30.24 853 25.19 16.9 62.5 29 -1.2 29.8
02:30 1024 30.24 853 25.19 16.8 62.2 29 -1.4 29.5
02:35 1024 30.24 853 25.19 16.6 61.8 29 -1.5 29.3
02:40 1024 30.24 853 25.19 16.5 61.6 29 -1.5 29.3
02:45 1024 30.24 853 25.19 16.5 61.6 29 -1.4 29.5
02:50 1024 30.24 853 25.19 16.3 61.3 29 -1.5 29.3
02:55 1024 30.24 853 25.19 16.3 61.4 29 -1.7 28.9
03:00 1024 30.24 853 25.19 16.3 61.4 28 -2.2 28.1
03:05 1024 30.24 853 25.19 16.3 61.4 29 -1.8 28.7
03:10 1024 30.24 853 25.19 16.2 61.2 28 -2.2 28
03:15 1024 30.24 853 25.19 16.3 61.3 27 -2.8 27
03:20 1024 30.24 853 25.19 16.4 61.4 27 -2.7 27.1
03:25 1024 30.24 853 25.19 16.2 61.2 28 -2 28.4
03:30 1024 30.24 854 25.22 15.9 60.6 28 -2.5 27.5
03:35 1024 30.24 854 25.22 15.8 60.4 30 -1.9 28.6
03:40 1024 30.24 854 25.22 15.3 59.5 34 -0.6 31
03:45 1025 30.27 854 25.22 14.6 58.3 36 -0.1 31.9
03:50 1025 30.27 854 25.22 14.4 58 33 -1.4 29.4
03:55 1025 30.27 854 25.22 14.5 58 38 0.3 32.5
04:00 1025 30.27 854 25.22 13.9 56.9 40 0.6 33.1
04:05 1025 30.27 854 25.22 13.5 56.3 39 -0.2 31.7
04:10 1025 30.27 854 25.22 13.4 56.2 38 -0.5 31.1
04:15 1025 30.27 854 25.22 13.3 56 40 -0.1 31.9
04:20 1025 30.27 854 25.22 13.2 55.7 40 -0 32
04:25 1025 30.27 854 25.22 13 55.3 41 0.1 32.1
04:30 1025 30.27 854 25.22 12.8 55 39 -0.8 30.5
04:35 1025 30.27 854 25.22 12.9 55.3 38 -0.8 30.5
04:40 1025 30.27 854 25.22 13.2 55.7 38 -0.7 30.7
04:45 1025 30.27 854 25.22 13.1 55.5 40 -0.2 31.6
04:50 1025 30.27 854 25.22 12.8 55.1 40 -0.3 31.5
04:55 1025 30.27 854 25.22 13 55.4 39 -0.5 31.2
05:00 1025 30.27 855 25.25 13 55.5 40 -0.3 31.5
05:05 1025 30.27 855 25.25 13 55.3 41 0.1 32.1
05:10 1026 30.3 855 25.25 12.6 54.7 43 0.3 32.6
05:15 1026 30.3 855 25.25 12.4 54.4 42 -0.1 31.7
05:20 1026 30.3 855 25.25 12.5 54.6 42 -0.1 31.8
05:25 1026 30.3 855 25.25 12.5 54.6 42 0 32.1
05:30 1026 30.3 855 25.25 12.6 54.7 44 0.7 33.2
05:35 1026 30.3 855 25.25 12.6 54.7 44 0.6 33.1
05:40 1026 30.3 855 25.25 12.4 54.2 44 0.5 32.9
05:45 1026 30.3 855 25.25 12.2 53.9 46 1 33.9
05:50 1026 30.3 855 25.25 11.9 53.5 47 1.1 34.1
05:55 1026 30.3 855 25.25 12 53.5 46 0.7 33.3
06:00 1026 30.3 855 25.25 12.1 53.7 47 1.1 34
06:05 1026 30.3 855 25.25 12 53.6 48 1.3 34.4
06:10 1026 30.3 855 25.25 12.2 53.9 46 1 33.8
06:15 1026 30.3 855 25.25 12.6 54.6 45 0.9 33.6
06:20 1026 30.3 855 25.25 12.9 55.2 43 0.7 33.3
06:25 1026 30.3 855 25.25 13.1 55.5 44 1.1 33.9
06:30 1026 30.3 855 25.25 13.1 55.6 42 0.7 33.3
06:35 1026 30.3 855 25.25 13.4 56.1 43 1 33.9
06:40 1026 30.3 855 25.25 13.8 56.8 42 1 33.9
06:45 1026 30.3 855 25.25 14.2 57.6 41 1.1 34
06:50 1026 30.3 855 25.25 14.9 58.8 39 1.3 34.4
06:55 1026 30.3 855 25.25 15.5 60 38 1.4 34.5
07:00 1026 30.3 855 25.25 15.8 60.4 39 1.8 35.3
07:05 1026 30.3 855 25.25 16 60.8 39 2.3 36.2
07:10 1026 30.3 855 25.25 16.2 61.2 38 2.1 35.7
07:15 1026 30.3 855 25.25 16.3 61.3 38 2 35.6
07:20 1026 30.3 855 25.25 17 62.6 37 2.5 36.4
07:25 1026 30.3 855 25.25 17.6 63.7 37 2.9 37.1
07:30 1026 30.3 855 25.25 18 64.4 38 3.6 38.5
07:35 1026 30.3 855 25.25 18 64.4 35 2.6 36.7
07:40 1026 30.3 855 25.25 18.9 66 32 2.2 35.9
07:45 1026 30.3 855 25.25 19.7 67.4 33 3 37.4
07:50 1026 30.3 855 25.25 19.5 67 29 1.1 34.1
07:55 1026 30.3 855 25.25 19.7 67.4 30 1.6 34.9
08:00 1026 30.3 855 25.25 20.3 68.5 27 0.8 33.4
08:05 1026 30.3 855 25.25 20.7 69.2 23 -0.8 30.5
08:10 1026 30.3 855 25.25 20.4 68.8 23 -1.2 29.9
08:15 1026 30.3 855 25.25 20.7 69.2 22 -1.7 29
08:20 1026 30.3 855 25.25 20.8 69.4 22 -1.4 29.5
08:25 1026 30.3 855 25.25 21 69.7 21 -1.9 28.6
08:30 1026 30.3 855 25.25 21 69.8 21 -1.9 28.6
08:35 1026 30.3 855 25.25 20.5 68.9 23 -1.3 29.7
08:40 1026 30.3 855 25.25 20.8 69.4 22 -1.5 29.4
08:45 1026 30.3 855 25.25 20.9 69.6 22 -1.5 29.3
08:50 1026 30.3 855 25.25 21.1 69.9 20 -2.5 27.5
08:55 1026 30.3 855 25.25 21 69.7 22 -1.7 29
09:00 1026 30.3 855 25.25 21.3 70.3 21 -2 28.3
09:05 1026 30.3 855 25.25 21.2 70.1 19 -3.1 26.5
09:10 1026 30.3 855 25.25 21.4 70.6 19 -3.3 26
09:15 1026 30.3 855 25.25 21.1 69.9 19 -3 26.7
09:20 1026 30.3 855 25.25 21.2 70.2 18 -3.6 25.6
09:25 1026 30.3 855 25.25 21.5 70.6 21 -1.8 28.7
09:30 1026 30.3 855 25.25 21.8 71.3 21 -1.1 30.1
09:35 1026 30.3 855 25.25 21.7 71 20 -2.3 27.9
09:40 1026 30.3 855 25.25 21.9 71.4 18 -3.3 26.1
09:45 1026 30.3 855 25.25 22.3 72.2 18 -3.2 26.3
09:50 1026 30.3 855 25.25 22.4 72.3 17 -4 24.7
09:55 1026 30.3 855 25.25 21.9 71.4 17 -4.1 24.7
10:00 1026 30.3 855 25.25 22 71.6 15 -5.2 22.6
10:05 1026 30.3 855 25.25 22.3 72.1 16 -4.9 23.2
10:10 1026 30.3 855 25.25 22.3 72.2 15 -5.4 22.4
10:15 1026 30.3 855 25.25 22.4 72.3 15 -5.1 22.8
10:20 1026 30.3 855 25.25 21.5 70.8 18 -3.5 25.7
10:25 1026 30.3 855 25.25 22 71.6 18 -3.2 26.2
10:30 1026 30.3 855 25.25 22.2 72 17 -3.8 25.2
10:35 1026 30.3 856 25.28 22.8 73 17 -3.1 26.4
10:40 1026 30.3 856 25.28 22.8 73.1 16 -4 24.8
10:45 1026 30.3 855 25.25 21.9 71.5 18 -3.2 26.2
10:50 1026 30.3 856 25.28 22.8 73 15 -5.3 22.4
10:55 1026 30.3 855 25.25 23.1 73.5 15 -5.1 22.9
11:00 1026 30.3 855 25.25 23.6 74.4 15 -4.8 23.4
11:05 1026 30.3 855 25.25 24 75.2 14 -4.5 23.9
11:10 1026 30.3 855 25.25 23.9 75 13 -6.2 20.8
11:15 1026 30.3 855 25.25 24 75.2 14 -5.2 22.7
11:20 1026 30.3 855 25.25 24.2 75.5 12 -6.6 20.1
11:25 1026 30.3 855 25.25 24.6 76.3 13 -5 23
11:30 1026 30.3 855 25.25 24.3 75.7 13 -5.4 22.4
11:35 1026 30.3 855 25.25 24.4 75.8 14 -4.6 23.8
11:40 1026 30.3 855 25.25 24.3 75.8 14 -5 23
11:45 1026 30.3 855 25.25 24.2 75.5 13 -5.5 22.1
11:50 1026 30.3 855 25.25 24 75.3 14 -5.2 22.6
11:55 1026 30.3 855 25.25 23.9 74.9 16 -3.1 26.4
12:00 1026 30.3 855 25.25 24 75.2 15 -4.2 24.4
12:05 1026 30.3 855 25.25 24.6 76.2 14 -4 24.8
12:10 1026 30.3 855 25.25 25.1 77.2 14 -3.6 25.5
12:15 1026 30.3 855 25.25 24.6 76.2 14 -4.4 24
12:20 1026 30.3 855 25.25 24.2 75.5 15 -4.1 24.7
12:25 1026 30.3 855 25.25 24.6 76.2 13 -4.9 23.1
12:30 1026 30.3 855 25.25 24.3 75.8 15 -3.8 25.1
12:35 1026 30.3 855 25.25 24.6 76.3 14 -4.6 23.7
12:40 1026 30.3 855 25.25 25.3 77.6 14 -3.6 25.6
12:45 1026 30.3 855 25.25 25.5 77.9 14 -3.2 26.2
12:50 1026 30.3 855 25.25 25.7 78.2 14 -3.5 25.7
12:55 1026 30.3 855 25.25 24.6 76.3 15 -3.6 25.6
13:00 1026 30.3 855 25.25 25.3 77.5 15 -2.6 27.3
13:05 1026 30.3 855 25.25 25.8 78.4 15 -2.8 26.9
13:10 1026 30.3 855 25.25 25.8 78.5 15 -2.6 27.3
13:15 1026 30.3 855 25.25 24.8 76.6 16 -2.8 27
13:20 1026 30.3 855 25.25 25.6 78.1 14 -3.3 26.1
13:25 1026 30.3 855 25.25 26.5 79.7 14 -2.7 27.2
13:30 1026 30.3 855 25.25 25.4 77.8 15 -2.9 26.9
13:35 1026 30.3 855 25.25 25.1 77.2 16 -2.4 27.7
13:40 1026 30.3 855 25.25 25.8 78.4 15 -2.8 26.9
13:45 1026 30.3 855 25.25 26.4 79.5 15 -2.4 27.8
13:50 1026 30.3 855 25.25 26 78.8 14 -3.1 26.3
13:55 1026 30.3 855 25.25 26.2 79.1 15 -2.1 28.2
14:00 1026 30.3 855 25.25 26.7 80.1 15 -1.4 29.6
14:05 1026 30.3 855 25.25 26.7 80.1 15 -1.9 28.6
14:10 1026 30.3 855 25.25 27.2 81 14 -2.3 27.9
14:15 1026 30.3 855 25.25 26.9 80.4 15 -1.7 28.9
14:20 1026 30.3 855 25.25 26.6 79.8 15 -2.1 28.2
14:25 1025 30.27 855 25.25 27 80.6 15 -1.7 28.9
14:30 1026 30.3 855 25.25 27.1 80.7 14 -2.1 28.3
14:35 1026 30.3 855 25.25 26.7 80 15 -2.1 28.1
14:40 1025 30.27 855 25.25 26.9 80.4 14 -2.3 27.9
14:45 1025 30.27 855 25.25 26.9 80.3 15 -2 28.4
14:50 1025 30.27 855 25.25 26.7 80.1 14 -2.8 26.9
14:55 1025 30.27 855 25.25 26 78.8 14 -3.2 26.3
15:00 1025 30.27 855 25.25 26.1 78.9 14 -2.8 26.9
15:05 1025 30.27 855 25.25 26.7 80 13 -3.6 25.5
15:10 1025 30.27 855 25.25 27.1 80.8 14 -2.7 27.2
15:15 1025 30.27 855 25.25 27.4 81.2 14 -2.2 28
15:20 1025 30.27 855 25.25 27 80.6 13 -3.6 25.6
15:25 1025 30.27 855 25.25 26.9 80.4 13 -3.9 25
15:30 1025 30.27 855 25.25 26.8 80.3 12 -4.2 24.5
15:35 1025 30.27 855 25.25 27.1 80.9 13 -3.7 25.4
15:40 1025 30.27 855 25.25 27.1 80.8 13 -3.9 25
15:45 1025 30.27 854 25.22 27.1 80.8 13 -3.7 25.4
15:50 1025 30.27 855 25.25 27.2 81 13 -3.8 25.2
15:55 1025 30.27 854 25.22 27 80.6 13 -3.6 25.6
16:00 1025 30.27 854 25.22 26.4 79.4 13 -4.5 23.9
16:05 1025 30.27 854 25.22 26.9 80.4 13 -3.8 25.1
16:10 1025 30.27 854 25.22 27.4 81.2 12 -4.3 24.2
16:15 1025 30.27 854 25.22 27.6 81.7 13 -2.8 27
16:20 1025 30.27 854 25.22 27.6 81.6 13 -3.4 26
16:25 1025 30.27 854 25.22 27.6 81.7 12 -4.3 24.3
16:30 1025 30.27 854 25.22 27.6 81.8 13 -3.2 26.2
16:35 1025 30.27 854 25.22 27.6 81.7 12 -3.5 25.6
16:40 1025 30.27 854 25.22 28 82.4 12 -3.7 25.3
16:45 1025 30.27 854 25.22 27.9 82.2 12 -3.7 25.4
16:50 1025 30.27 854 25.22 27.6 81.6 12 -3.8 25.1
16:55 1025 30.27 854 25.22 27.4 81.3 12 -3.7 25.3
17:00 1025 30.27 854 25.22 26.6 79.8 12 -4.4 24
17:05 1025 30.27 854 25.22 27 80.5 13 -3.9 25
17:10 1025 30.27 854 25.22 27.3 81.1 13 -3.8 25.2
17:15 1025 30.27 854 25.22 27.5 81.5 12 -4 24.8
17:20 1025 30.27 854 25.22 27.6 81.7 12 -4 24.9
17:25 1025 30.27 854 25.22 27.6 81.7 12 -4.2 24.5
17:30 1025 30.27 854 25.22 27.4 81.4 12 -4 24.8
17:35 1025 30.27 854 25.22 27 80.6 12 -4.8 23.3
17:40 1025 30.27 854 25.22 26.4 79.5 13 -4.5 24
17:45 1025 30.27 854 25.22 26.1 78.9 13 -4.5 24
17:50 1025 30.27 854 25.22 26.3 79.3 12 -4.9 23.1
17:55 1025 30.27 854 25.22 26.4 79.4 13 -4.5 24
18:00 1025 30.27 854 25.22 26.7 80 12 -5.3 22.4
18:05 1025 30.27 854 25.22 26.4 79.5 13 -4.4 24.1
18:10 1025 30.27 854 25.22 26.9 80.5 12 -4.1 24.6
18:15 1025 30.27 854 25.22 27.2 81 12 -4.1 24.7
18:20 1025 30.27 854 25.22 27.1 80.8 13 -3.1 26.5
18:25 1025 30.27 854 25.22 26.3 79.3 13 -4.2 24.4
18:30 1025 30.27 854 25.22 26 78.8 14 -3.7 25.3
18:35 1025 30.27 854 25.22 25.9 78.7 13 -3.9 24.9
18:40 1025 30.27 854 25.22 25.9 78.5 13 -4.8 23.4
18:45 1025 30.27 854 25.22 25.8 78.5 12 -5 22.9
18:50 1025 30.27 854 25.22 25.7 78.2 13 -4.2 24.5
18:55 1025 30.27 854 25.22 25.4 77.7 13 -4.5 24
19:00 1025 30.27 854 25.22 25.2 77.3 14 -4.3 24.3
19:05 1025 30.27 854 25.22 25.2 77.3 13 -4.5 24
19:10 1025 30.27 854 25.22 25.1 77.1 14 -4 24.8
19:15 1025 30.27 855 25.25 24.9 76.9 14 -3.9 24.9
19:20 1025 30.27 855 25.25 24.9 76.8 15 -3.5 25.7
19:25 1025 30.27 855 25.25 24.6 76.3 19 -0.4 31.3
19:30 1025 30.27 855 25.25 24.1 75.3 19 -1.1 30.1
19:35 1025 30.27 855 25.25 23.9 74.9 19 -1.1 30.1
19:40 1025 30.27 855 25.25 23.6 74.4 18 -1.8 28.8
19:45 1025 30.27 855 25.25 23.4 74.1 17 -2.5 27.5
19:50 1025 30.27 855 25.25 23.3 73.9 19 -1.5 29.3
19:55 1025 30.27 855 25.25 22.8 73 21 -0.5 31.1
20:00 1025 30.27 855 25.25 22.1 71.7 21 -0.8 30.5
20:05 1026 30.3 855 25.25 21.8 71.3 23 -0.2 31.7
20:10 1026 30.3 855 25.25 21.7 71.1 24 0.2 32.4
20:15 1026 30.3 855 25.25 21.6 70.9 24 0.4 32.6
20:20 1026 30.3 855 25.25 21.4 70.5 25 0.7 33.3
20:25 1026 30.3 855 25.25 21.2 70.1 26 1.1 33.9
20:30 1026 30.3 855 25.25 20.8 69.5 27 1.6 34.9
20:35 1026 30.3 855 25.25 20.5 68.9 29 1.8 35.2
20:40 1026 30.3 855 25.25 20.3 68.5 29 1.8 35.3
20:45 1026 30.3 855 25.25 20.3 68.5 29 1.9 35.3
20:50 1026 30.3 855 25.25 20.3 68.5 30 2.1 35.8
20:55 1026 30.3 855 25.25 20.2 68.4 29 2 35.6
21:00 1026 30.3 855 25.25 20.2 68.3 30 2.1 35.8
21:05 1026 30.3 855 25.25 20.2 68.3 29 1.9 35.4
21:10 1026 30.3 855 25.25 20.1 68.2 30 2.2 35.9
21:15 1026 30.3 855 25.25 19.9 67.8 30 2.1 35.8
21:20 1026 30.3 855 25.25 19.9 67.8 30 2.1 35.8
21:25 1026 30.3 855 25.25 19.8 67.7 30 2.1 35.8
21:30 1026 30.3 855 25.25 19.8 67.6 31 2.1 35.8
21:35 1026 30.3 855 25.25 19.7 67.5 31 2.1 35.8
21:40 1026 30.3 855 25.25 19.6 67.3 31 2 35.6
21:45 1026 30.3 855 25.25 19.5 67.1 31 2 35.5
21:50 1026 30.3 855 25.25 19.5 67.1 31 2 35.6
21:55 1026 30.3 856 25.28 19.3 66.8 31 2 35.6
22:00 1026 30.3 855 25.25 19.3 66.7 32 2.1 35.8
22:05 1026 30.3 856 25.28 19.2 66.5 32 2.2 36
22:10 1026 30.3 856 25.28 19 66.2 32 2.1 35.8
22:15 1026 30.3 856 25.28 19 66.1 32 2.2 36
22:20 1026 30.3 856 25.28 18.9 66 32 2.2 35.9
22:25 1026 30.3 856 25.28 18.8 65.9 33 2.3 36.1
22:30 1026 30.3 856 25.28 18.8 65.8 33 2.3 36.2
22:35 1026 30.3 856 25.28 18.6 65.5 34 2.4 36.3
22:40 1026 30.3 856 25.28 18.4 65.1 34 2.4 36.3
22:45 1026 30.3 855 25.25 18.3 64.9 34 2.4 36.3
22:50 1026 30.3 855 25.25 18.2 64.8 34 2.4 36.2
22:55 1026 30.3 855 25.25 18.2 64.7 35 2.5 36.5
23:00 1026 30.3 855 25.25 18.1 64.6 35 2.5 36.4
23:05 1026 30.3 855 25.25 18.1 64.6 35 2.4 36.3
23:10 1026 30.3 855 25.25 18.1 64.5 35 2.3 36.1
23:15 1026 30.3 855 25.25 18 64.4 35 2.5 36.4
23:20 1026 30.3 855 25.25 17.9 64.2 35 2.5 36.5
23:25 1026 30.3 855 25.25 17.8 64 36 2.5 36.5
23:30 1026 30.3 855 25.25 17.7 63.9 36 2.4 36.4
23:35 1026 30.3 855 25.25 17.7 63.8 36 2.6 36.6
23:40 1026 30.3 855 25.25 17.6 63.7 36 2.5 36.6
23:45 1026 30.3 855 25.25 17.5 63.4 36 2.5 36.6
23:50 1026 30.3 856 25.28 17.4 63.3 36 2.5 36.5
23:55 1026 30.3 855 25.25 17.4 63.3 36 2.4 36.3
24:00 1026 30.3 855 25.25 17.4 63.2 36 2.5 36.4